Time,TemperatureF,DewpointF,PressureIn,WindDirection,WindDirectionDegrees,WindSpeedMPH,WindSpeedGustMPH,Humidity,HourlyPrecipIn,Conditions,Clouds,dailyrainin,SoftwareType,DateUTC
2013-02-24 00:02:00,40.7,39.1,29.81,West,270,0.4,0.4,94,0.00,,,0.00,WUHU216HW,2013-02-24 05:02:00,
2013-02-24 00:07:00,40.7,39.1,29.82,NNW,338,0.0,0.4,94,0.00,,,0.00,WUHU216HW,2013-02-24 05:07:00,
2013-02-24 00:12:00,40.7,39.1,29.81,NNW,338,0.0,0.4,94,0.00,,,0.00,WUHU216HW,2013-02-24 05:12:00,
2013-02-24 00:17:00,40.7,39.1,29.81,SSE,158,0.0,0.7,94,0.00,,,0.00,WUHU216HW,2013-02-24 05:17:00,
2013-02-24 00:22:00,40.7,38.8,29.81,NNW,338,0.0,0.7,93,0.00,,,0.00,WUHU216HW,2013-02-24 05:22:00,
2013-02-24 00:27:00,40.7,38.8,29.81,NW,315,0.0,0.4,93,0.00,,,0.00,WUHU216HW,2013-02-24 05:27:00,
2013-02-24 00:32:00,40.7,38.8,29.81,NW,315,0.0,0.2,93,0.00,,,0.00,WUHU216HW,2013-02-24 05:32:00,
2013-02-24 00:37:00,40.5,38.6,29.81,WNW,293,0.0,0.4,93,0.00,,,0.00,WUHU216HW,2013-02-24 05:37:00,
2013-02-24 00:42:00,40.5,38.6,29.81,NW,315,0.0,0.7,93,0.00,,,0.00,WUHU216HW,2013-02-24 05:42:00,
2013-02-24 00:47:00,40.3,38.4,29.81,NW,315,0.0,0.7,93,0.00,,,0.00,WUHU216HW,2013-02-24 05:47:00,
2013-02-24 00:52:00,40.3,38.2,29.82,NW,315,0.4,0.4,92,0.00,,,0.00,WUHU216HW,2013-02-24 05:52:00,
2013-02-24 00:57:00,40.3,38.2,29.81,West,270,0.4,0.4,92,0.00,,,0.00,WUHU216HW,2013-02-24 05:57:00,
2013-02-24 01:02:00,40.1,37.7,29.81,West,270,0.0,1.1,91,0.00,,,0.00,WUHU216HW,2013-02-24 06:02:00,
2013-02-24 01:07:00,40.0,37.5,29.81,WNW,293,0.4,1.1,91,0.00,,,0.00,WUHU216HW,2013-02-24 06:07:00,
2013-02-24 01:12:00,40.0,37.5,29.80,WNW,293,0.2,0.4,91,0.00,,,0.00,WUHU216HW,2013-02-24 06:12:00,
2013-02-24 01:17:00,40.0,37.5,29.81,West,270,0.0,0.4,91,0.00,,,0.00,WUHU216HW,2013-02-24 06:17:00,
2013-02-24 01:22:00,39.8,37.4,29.81,WNW,293,0.0,0.4,91,0.00,,,0.00,WUHU216HW,2013-02-24 06:22:00,
2013-02-24 01:27:00,39.8,37.4,29.81,WNW,293,0.0,0.4,91,0.00,,,0.00,WUHU216HW,2013-02-24 06:27:00,
2013-02-24 01:32:00,39.8,37.1,29.81,WNW,293,0.0,0.2,90,0.00,,,0.00,WUHU216HW,2013-02-24 06:32:00,
2013-02-24 01:37:00,39.6,36.9,29.83,WNW,293,0.0,0.2,90,0.00,,,0.00,WUHU216HW,2013-02-24 06:37:00,
2013-02-24 01:42:00,39.6,36.6,29.81,NW,315,0.0,0.4,89,0.00,,,0.00,WUHU216HW,2013-02-24 06:42:00,
2013-02-24 01:47:00,39.8,36.8,29.81,NW,315,0.0,0.4,89,0.00,,,0.00,WUHU216HW,2013-02-24 06:47:00,
2013-02-24 01:52:00,39.8,36.2,29.82,NW,315,0.0,0.4,87,0.00,,,0.00,WUHU216HW,2013-02-24 06:52:00,
2013-02-24 01:57:00,39.8,36.2,29.82,NW,315,0.0,0.4,87,0.00,,,0.00,WUHU216HW,2013-02-24 06:57:00,
2013-02-24 02:03:00,39.4,35.8,29.82,NW,315,0.0,0.0,87,0.00,,,0.00,WUHU216HW,2013-02-24 07:03:00,
2013-02-24 02:08:00,39.1,35.5,29.82,NW,315,0.0,0.0,87,0.00,,,0.00,WUHU216HW,2013-02-24 07:08:00,
2013-02-24 02:13:00,38.5,35.3,29.81,WNW,293,0.2,0.2,88,0.00,,,0.00,WUHU216HW,2013-02-24 07:13:00,
2013-02-24 02:18:00,38.5,35.3,29.81,WNW,293,0.0,0.2,88,0.00,,,0.00,WUHU216HW,2013-02-24 07:18:00,
2013-02-24 02:23:00,38.7,35.5,29.81,North,0,0.0,0.4,88,0.00,,,0.00,WUHU216HW,2013-02-24 07:23:00,
2013-02-24 02:28:00,38.9,35.7,29.81,WNW,293,0.2,1.1,88,0.00,,,0.00,WUHU216HW,2013-02-24 07:28:00,
2013-02-24 02:33:00,39.1,35.8,29.77,West,270,0.0,1.1,88,0.00,,,0.00,WUHU216HW,2013-02-24 07:33:00,
2013-02-24 02:38:00,39.1,35.5,29.77,WNW,293,0.0,0.2,87,0.00,,,0.00,WUHU216HW,2013-02-24 07:38:00,
2013-02-24 02:43:00,39.1,35.5,29.78,NW,315,0.0,0.2,87,0.00,,,0.00,WUHU216HW,2013-02-24 07:43:00,
2013-02-24 02:48:00,38.9,35.3,29.77,WNW,293,0.0,1.3,87,0.00,,,0.00,WUHU216HW,2013-02-24 07:48:00,
2013-02-24 02:53:00,39.1,35.5,29.77,NW,315,0.0,1.3,87,0.00,,,0.00,WUHU216HW,2013-02-24 07:53:00,
2013-02-24 02:58:00,38.9,35.3,29.78,WNW,293,0.4,0.4,87,0.00,,,0.00,WUHU216HW,2013-02-24 07:58:00,
2013-02-24 03:03:00,38.9,35.3,29.77,WNW,293,0.0,0.4,87,0.00,,,0.00,WUHU216HW,2013-02-24 08:03:00,
2013-02-24 03:08:00,38.9,35.3,29.78,WNW,293,0.0,0.4,87,0.00,,,0.00,WUHU216HW,2013-02-24 08:08:00,
2013-02-24 03:13:00,38.7,35.1,29.78,WNW,293,0.0,0.0,87,0.00,,,0.00,WUHU216HW,2013-02-24 08:13:00,
2013-02-24 03:18:00,38.5,34.9,29.78,WNW,293,0.2,0.2,87,0.00,,,0.00,WUHU216HW,2013-02-24 08:18:00,
2013-02-24 03:23:00,38.5,34.7,29.77,WNW,293,0.0,0.2,86,0.00,,,0.00,WUHU216HW,2013-02-24 08:23:00,
2013-02-24 03:28:00,38.3,34.5,29.78,WNW,293,0.0,0.2,86,0.00,,,0.00,WUHU216HW,2013-02-24 08:28:00,
2013-02-24 03:33:00,38.3,34.5,29.78,WNW,293,0.0,0.2,86,0.00,,,0.00,WUHU216HW,2013-02-24 08:33:00,
2013-02-24 03:38:00,38.2,34.3,29.77,WNW,293,0.2,0.9,86,0.00,,,0.00,WUHU216HW,2013-02-24 08:38:00,
2013-02-24 03:43:00,38.2,34.3,29.77,WNW,293,0.0,0.9,86,0.00,,,0.00,WUHU216HW,2013-02-24 08:43:00,
2013-02-24 03:48:00,38.2,34.3,29.77,NW,315,0.0,0.0,86,0.00,,,0.00,WUHU216HW,2013-02-24 08:48:00,
2013-02-24 03:53:00,38.2,34.3,29.77,WNW,293,0.0,0.0,86,0.00,,,0.00,WUHU216HW,2013-02-24 08:53:00,
2013-02-24 03:58:00,38.0,33.8,29.76,WNW,293,0.0,0.0,85,0.00,,,0.00,WUHU216HW,2013-02-24 08:58:00,
2013-02-24 04:03:00,37.8,33.7,29.77,WNW,293,0.0,0.0,85,0.00,,,0.00,WUHU216HW,2013-02-24 09:03:00,
2013-02-24 04:08:00,37.8,33.7,29.77,WNW,293,0.0,0.0,85,0.00,,,0.00,WUHU216HW,2013-02-24 09:08:00,
2013-02-24 04:13:00,37.4,33.3,29.77,WNW,293,0.0,0.0,85,0.00,,,0.00,WUHU216HW,2013-02-24 09:13:00,
2013-02-24 04:18:00,37.3,33.1,29.77,WNW,293,0.0,0.0,85,0.00,,,0.00,WUHU216HW,2013-02-24 09:18:00,
2013-02-24 04:23:00,37.1,32.9,29.77,WNW,293,0.0,0.0,85,0.00,,,0.00,WUHU216HW,2013-02-24 09:23:00,
2013-02-24 04:28:00,36.9,32.5,29.78,WNW,293,0.0,0.0,84,0.00,,,0.00,WUHU216HW,2013-02-24 09:28:00,
2013-02-24 04:33:00,36.7,32.3,29.78,WNW,293,0.0,0.0,84,0.00,,,0.00,WUHU216HW,2013-02-24 09:33:00,
2013-02-24 04:38:00,36.5,32.4,29.77,WNW,293,0.0,0.0,85,0.00,,,0.00,WUHU216HW,2013-02-24 09:38:00,
2013-02-24 04:43:00,36.4,32.2,29.77,WNW,293,0.0,0.0,85,0.00,,,0.00,WUHU216HW,2013-02-24 09:43:00,
2013-02-24 04:48:00,36.4,32.0,29.78,WNW,293,0.0,0.0,84,0.00,,,0.00,WUHU216HW,2013-02-24 09:48:00,
2013-02-24 04:53:00,36.4,32.2,29.79,WNW,293,0.0,0.4,85,0.00,,,0.00,WUHU216HW,2013-02-24 09:53:00,
2013-02-24 04:58:00,36.2,32.0,29.79,NW,315,0.0,0.4,85,0.00,,,0.00,WUHU216HW,2013-02-24 09:58:00,
2013-02-24 05:03:00,36.0,31.6,29.79,NW,315,0.0,0.0,84,0.00,,,0.00,WUHU216HW,2013-02-24 10:03:00,
2013-02-24 05:08:00,36.0,31.6,29.79,NW,315,0.0,0.0,84,0.00,,,0.00,WUHU216HW,2013-02-24 10:08:00,
2013-02-24 05:13:00,36.0,31.6,29.79,NW,315,0.0,0.2,84,0.00,,,0.00,WUHU216HW,2013-02-24 10:13:00,
2013-02-24 05:18:00,35.8,31.4,29.79,NW,315,0.0,0.4,84,0.00,,,0.00,WUHU216HW,2013-02-24 10:18:00,
2013-02-24 05:23:00,36.0,31.6,29.79,NW,315,0.0,0.4,84,0.00,,,0.00,WUHU216HW,2013-02-24 10:23:00,
2013-02-24 05:28:00,36.0,31.0,29.79,NW,315,0.0,0.0,82,0.00,,,0.00,WUHU216HW,2013-02-24 10:28:00,
2013-02-24 05:33:00,36.0,31.0,29.79,NW,315,0.0,0.0,82,0.00,,,0.00,WUHU216HW,2013-02-24 10:33:00,
2013-02-24 05:38:00,36.0,31.3,29.79,NW,315,0.0,0.0,83,0.00,,,0.00,WUHU216HW,2013-02-24 10:38:00,
2013-02-24 05:43:00,36.0,31.0,29.80,NW,315,0.0,0.0,82,0.00,,,0.00,WUHU216HW,2013-02-24 10:43:00,
2013-02-24 05:48:00,35.8,30.8,29.80,NW,315,0.0,0.0,82,0.00,,,0.00,WUHU216HW,2013-02-24 10:48:00,
2013-02-24 05:53:00,36.0,31.0,29.80,NW,315,0.2,0.2,82,0.00,,,0.00,WUHU216HW,2013-02-24 10:53:00,
2013-02-24 05:58:00,36.2,31.1,29.80,NW,315,0.0,0.4,82,0.00,,,0.00,WUHU216HW,2013-02-24 10:58:00,
2013-02-24 06:03:00,36.0,30.7,29.80,NW,315,0.0,0.4,81,0.00,,,0.00,WUHU216HW,2013-02-24 11:03:00,
2013-02-24 06:08:00,35.8,30.5,29.79,WNW,293,1.1,1.1,81,0.00,,,0.00,WUHU216HW,2013-02-24 11:08:00,
2013-02-24 06:13:00,35.8,30.8,29.80,NW,315,0.2,1.1,82,0.00,,,0.00,WUHU216HW,2013-02-24 11:13:00,
2013-02-24 06:18:00,35.8,30.8,29.80,WNW,293,0.2,0.4,82,0.00,,,0.00,WUHU216HW,2013-02-24 11:18:00,
2013-02-24 06:23:00,35.6,30.6,29.79,WNW,293,0.0,0.4,82,0.00,,,0.00,WUHU216HW,2013-02-24 11:23:00,
2013-02-24 06:28:00,35.6,30.6,29.80,West,270,0.0,0.4,82,0.00,,,0.00,WUHU216HW,2013-02-24 11:28:00,
2013-02-24 06:33:00,35.3,30.2,29.80,West,270,0.4,0.4,82,0.00,,,0.00,WUHU216HW,2013-02-24 11:33:00,
2013-02-24 06:38:00,34.9,30.3,29.80,West,270,0.0,0.4,83,0.00,,,0.00,WUHU216HW,2013-02-24 11:38:00,
2013-02-24 06:43:00,34.4,29.7,29.81,West,270,0.0,0.2,83,0.00,,,0.00,WUHU216HW,2013-02-24 11:43:00,
2013-02-24 06:48:00,34.2,29.8,29.81,West,270,0.0,0.2,84,0.00,,,0.00,WUHU216HW,2013-02-24 11:48:00,
2013-02-24 06:53:00,33.7,29.0,29.81,West,270,0.0,0.0,83,0.00,,,0.00,WUHU216HW,2013-02-24 11:53:00,
2013-02-24 06:58:00,33.3,28.9,29.81,West,270,0.0,0.0,84,0.00,,,0.00,WUHU216HW,2013-02-24 11:58:00,
2013-02-24 07:03:00,32.9,28.6,29.81,West,270,0.0,0.0,84,0.00,,,0.00,WUHU216HW,2013-02-24 12:03:00,
2013-02-24 07:08:00,32.6,28.5,29.81,West,270,0.0,0.0,85,0.00,,,0.00,WUHU216HW,2013-02-24 12:08:00,
2013-02-24 07:13:00,32.4,28.7,29.82,SSE,158,0.4,0.4,86,0.00,,,0.00,WUHU216HW,2013-02-24 12:13:00,
2013-02-24 07:18:00,32.2,28.5,29.82,SSE,158,0.0,0.4,86,0.00,,,0.00,WUHU216HW,2013-02-24 12:18:00,
2013-02-24 07:23:00,32.0,28.4,29.82,SSE,158,0.0,0.4,86,0.00,,,0.00,WUHU216HW,2013-02-24 12:23:00,
2013-02-24 07:28:00,32.0,28.4,29.83,SSE,158,0.0,0.4,86,0.00,,,0.00,WUHU216HW,2013-02-24 12:28:00,
2013-02-24 07:33:00,32.0,28.4,29.83,SSE,158,0.0,0.0,86,0.00,,,0.00,WUHU216HW,2013-02-24 12:33:00,
2013-02-24 07:38:00,31.9,28.2,29.82,SSE,158,0.0,0.0,86,0.00,,,0.00,WUHU216HW,2013-02-24 12:38:00,
2013-02-24 07:43:00,31.9,28.2,29.83,SSE,158,0.0,0.0,86,0.00,,,0.00,WUHU216HW,2013-02-24 12:43:00,
2013-02-24 07:48:00,31.9,28.4,29.84,SSE,158,0.0,0.0,87,0.00,,,0.00,WUHU216HW,2013-02-24 12:48:00,
2013-02-24 07:53:00,31.9,28.4,29.83,SSE,158,0.0,0.0,87,0.00,,,0.00,WUHU216HW,2013-02-24 12:53:00,
2013-02-24 07:58:00,32.0,28.6,29.83,SSE,158,0.0,0.0,87,0.00,,,0.00,WUHU216HW,2013-02-24 12:58:00,
2013-02-24 08:03:00,32.2,29.1,29.84,SE,135,0.0,0.4,88,0.00,,,0.00,WUHU216HW,2013-02-24 13:03:00,
2013-02-24 08:08:00,32.6,29.4,29.83,SSW,203,0.0,0.4,88,0.00,,,0.00,WUHU216HW,2013-02-24 13:08:00,
2013-02-24 08:13:00,32.8,29.6,29.84,WSW,248,0.0,0.4,88,0.00,,,0.00,WUHU216HW,2013-02-24 13:13:00,
2013-02-24 08:18:00,33.5,30.0,29.84,WSW,248,0.0,0.4,87,0.00,,,0.00,WUHU216HW,2013-02-24 13:18:00,
2013-02-24 08:23:00,34.0,30.2,29.84,WSW,248,0.0,0.0,86,0.00,,,0.00,WUHU216HW,2013-02-24 13:23:00,
2013-02-24 08:28:00,34.6,30.4,29.84,NNW,338,0.0,0.0,85,0.00,,,0.00,WUHU216HW,2013-02-24 13:28:00,
2013-02-24 08:33:00,34.9,30.5,29.84,WNW,293,0.0,0.4,84,0.00,,,0.00,WUHU216HW,2013-02-24 13:33:00,
2013-02-24 08:38:00,35.5,31.1,29.84,WNW,293,0.0,0.4,84,0.00,,,0.00,WUHU216HW,2013-02-24 13:38:00,
2013-02-24 08:43:00,35.6,31.2,29.84,WNW,293,0.7,0.7,84,0.00,,,0.00,WUHU216HW,2013-02-24 13:43:00,
2013-02-24 08:48:00,36.0,31.0,29.88,WNW,293,0.0,1.1,82,0.00,,,0.00,WUHU216HW,2013-02-24 13:48:00,
2013-02-24 08:53:00,36.4,31.1,29.88,NE,45,0.0,1.1,81,0.00,,,0.00,WUHU216HW,2013-02-24 13:53:00,
2013-02-24 08:58:00,36.5,31.2,29.89,West,270,0.0,0.4,81,0.00,,,0.00,WUHU216HW,2013-02-24 13:58:00,
2013-02-24 09:03:00,36.7,31.1,29.88,West,270,0.2,0.4,80,0.00,,,0.00,WUHU216HW,2013-02-24 14:03:00,
2013-02-24 09:08:00,37.1,31.5,29.89,SE,135,0.0,0.4,80,0.00,,,0.00,WUHU216HW,2013-02-24 14:08:00,
2013-02-24 09:13:00,37.3,31.7,29.89,West,270,0.0,0.4,80,0.00,,,0.00,WUHU216HW,2013-02-24 14:13:00,
2013-02-24 09:18:00,37.6,31.7,29.89,NW,315,0.0,0.4,79,0.00,,,0.00,WUHU216HW,2013-02-24 14:18:00,
2013-02-24 09:23:00,37.8,31.9,29.89,WNW,293,0.0,0.2,79,0.00,,,0.00,WUHU216HW,2013-02-24 14:23:00,
2013-02-24 09:28:00,38.2,31.6,29.90,WNW,293,0.0,0.9,77,0.00,,,0.00,WUHU216HW,2013-02-24 14:28:00,
2013-02-24 09:33:00,38.5,32.3,29.89,NW,315,0.0,0.9,78,0.00,,,0.00,WUHU216HW,2013-02-24 14:33:00,
2013-02-24 09:38:00,38.9,32.3,29.89,WSW,248,0.2,0.2,77,0.00,,,0.00,WUHU216HW,2013-02-24 14:38:00,
2013-02-24 09:43:00,39.1,32.1,29.90,North,0,0.0,0.2,76,0.00,,,0.00,WUHU216HW,2013-02-24 14:43:00,
2013-02-24 09:48:00,39.4,32.1,29.89,NNE,23,0.0,0.4,75,0.00,,,0.00,WUHU216HW,2013-02-24 14:48:00,
2013-02-24 09:53:00,39.8,32.5,29.90,North,0,0.0,0.4,75,0.00,,,0.00,WUHU216HW,2013-02-24 14:53:00,
2013-02-24 09:58:00,40.1,32.5,29.89,South,180,0.0,0.4,74,0.00,,,0.00,WUHU216HW,2013-02-24 14:58:00,
2013-02-24 10:03:00,40.5,32.1,29.85,SE,135,0.0,0.7,72,0.00,,,0.00,WUHU216HW,2013-02-24 15:03:00,
2013-02-24 10:08:00,40.9,32.5,29.85,West,270,0.2,0.7,72,0.00,,,0.00,WUHU216HW,2013-02-24 15:08:00,
2013-02-24 10:13:00,41.4,31.2,29.84,ENE,68,0.2,0.7,67,0.00,,,0.00,WUHU216HW,2013-02-24 15:13:00,
2013-02-24 10:18:00,41.6,31.4,29.86,North,0,0.7,0.7,67,0.00,,,0.00,WUHU216HW,2013-02-24 15:18:00,
2013-02-24 10:23:00,41.9,31.8,29.85,NW,315,0.0,1.1,67,0.00,,,0.00,WUHU216HW,2013-02-24 15:23:00,
2013-02-24 10:28:00,42.3,31.0,29.84,NNW,338,0.2,1.6,64,0.00,,,0.00,WUHU216HW,2013-02-24 15:28:00,
2013-02-24 10:33:00,42.8,31.9,29.84,NE,45,0.7,1.6,65,0.00,,,0.00,WUHU216HW,2013-02-24 15:33:00,
2013-02-24 10:38:00,42.8,31.9,29.85,ENE,68,0.0,0.7,65,0.00,,,0.00,WUHU216HW,2013-02-24 15:38:00,
2013-02-24 10:43:00,43.2,31.8,29.85,NNW,338,0.0,0.9,64,0.00,,,0.00,WUHU216HW,2013-02-24 15:43:00,
2013-02-24 10:48:00,43.9,33.3,29.85,West,270,0.0,0.9,66,0.00,,,0.00,WUHU216HW,2013-02-24 15:48:00,
2013-02-24 10:53:00,44.6,33.2,29.86,WNW,293,0.9,0.9,64,0.00,,,0.00,WUHU216HW,2013-02-24 15:53:00,
2013-02-24 10:58:00,45.2,33.3,29.85,NW,315,0.2,0.9,63,0.00,,,0.00,WUHU216HW,2013-02-24 15:58:00,
2013-02-24 11:03:00,45.4,32.7,29.86,West,270,0.2,0.4,61,0.00,,,0.00,WUHU216HW,2013-02-24 16:03:00,
2013-02-24 11:08:00,45.7,31.8,29.86,NW,315,3.1,3.1,58,0.00,,,0.00,WUHU216HW,2013-02-24 16:08:00,
2013-02-24 11:13:00,46.1,32.5,29.87,NNW,338,0.0,3.1,59,0.00,,,0.00,WUHU216HW,2013-02-24 16:13:00,
2013-02-24 11:18:00,46.1,31.6,29.86,NE,45,0.2,0.9,57,0.00,,,0.00,WUHU216HW,2013-02-24 16:18:00,
2013-02-24 11:23:00,46.1,31.6,29.87,North,0,0.2,0.4,57,0.00,,,0.00,WUHU216HW,2013-02-24 16:23:00,
2013-02-24 11:28:00,46.1,31.1,29.85,NNW,338,0.4,0.7,56,0.00,,,0.00,WUHU216HW,2013-02-24 16:28:00,
2013-02-24 11:33:00,46.4,31.1,29.87,WNW,293,0.0,0.7,55,0.00,,,0.00,WUHU216HW,2013-02-24 16:33:00,
2013-02-24 11:38:00,46.6,30.8,29.86,WNW,293,0.4,0.4,54,0.00,,,0.00,WUHU216HW,2013-02-24 16:38:00,
2013-02-24 11:43:00,46.8,29.6,29.87,ESE,113,0.2,0.4,51,0.00,,,0.00,WUHU216HW,2013-02-24 16:43:00,
2013-02-24 11:48:00,47.2,30.3,29.86,West,270,0.2,0.4,52,0.00,,,0.00,WUHU216HW,2013-02-24 16:48:00,
2013-02-24 11:53:00,47.5,31.6,29.90,WNW,293,0.0,0.4,54,0.00,,,0.00,WUHU216HW,2013-02-24 16:53:00,
2013-02-24 11:58:00,48.2,31.9,29.90,NNE,23,0.0,0.4,53,0.00,,,0.00,WUHU216HW,2013-02-24 16:58:00,
2013-02-24 12:03:00,48.8,31.0,29.90,SW,225,0.0,0.4,50,0.00,,,0.00,WUHU216HW,2013-02-24 17:03:00,
2013-02-24 12:08:00,49.3,32.0,29.89,North,0,0.0,0.4,51,0.00,,,0.00,WUHU216HW,2013-02-24 17:08:00,
2013-02-24 12:13:00,49.3,29.9,29.90,WNW,293,1.3,2.2,47,0.00,,,0.00,WUHU216HW,2013-02-24 17:13:00,
2013-02-24 12:18:00,49.3,27.6,29.90,SE,135,0.0,2.5,43,0.00,,,0.00,WUHU216HW,2013-02-24 17:18:00,
2013-02-24 12:23:00,49.7,29.6,29.90,NW,315,0.4,2.5,46,0.00,,,0.00,WUHU216HW,2013-02-24 17:23:00,
2013-02-24 12:28:00,49.9,28.7,29.90,South,180,0.0,2.2,44,0.00,,,0.00,WUHU216HW,2013-02-24 17:28:00,
2013-02-24 12:33:00,50.2,30.7,29.90,WNW,293,0.9,1.8,47,0.00,,,0.00,WUHU216HW,2013-02-24 17:33:00,
2013-02-24 12:38:00,50.8,27.8,29.90,SW,225,0.4,1.3,41,0.00,,,0.00,WUHU216HW,2013-02-24 17:38:00,
2013-02-24 12:43:00,51.1,28.2,29.89,NW,315,0.2,1.3,41,0.00,,,0.00,WUHU216HW,2013-02-24 17:43:00,
2013-02-24 12:48:00,52.2,30.8,29.90,ESE,113,0.0,1.3,44,0.00,,,0.00,WUHU216HW,2013-02-24 17:48:00,
2013-02-24 12:54:00,52.9,29.8,29.90,WNW,293,0.4,0.7,41,0.00,,,0.00,WUHU216HW,2013-02-24 17:54:00,
2013-02-24 12:59:00,53.5,29.7,29.89,North,0,0.4,2.0,40,0.00,,,0.00,WUHU216HW,2013-02-24 17:59:00,
2013-02-24 13:04:00,53.8,30.1,29.90,West,270,0.2,2.0,40,0.00,,,0.00,WUHU216HW,2013-02-24 18:04:00,
2013-02-24 13:09:00,54.4,29.2,29.89,North,0,0.4,2.7,38,0.00,,,0.00,WUHU216HW,2013-02-24 18:09:00,
2013-02-24 13:14:00,55.3,31.3,29.89,WNW,293,0.0,2.7,40,0.00,,,0.00,WUHU216HW,2013-02-24 18:14:00,
2013-02-24 13:19:00,58.0,31.7,29.90,WNW,293,0.9,0.9,37,0.00,,,0.00,WUHU216HW,2013-02-24 18:19:00,
2013-02-24 13:24:00,58.1,29.0,29.89,NW,315,1.3,1.3,33,0.00,,,0.00,WUHU216HW,2013-02-24 18:24:00,
2013-02-24 13:29:00,57.4,25.3,29.89,West,270,3.1,3.1,29,0.00,,,0.00,WUHU216HW,2013-02-24 18:29:00,
2013-02-24 13:34:00,55.4,26.6,29.85,WNW,293,0.0,3.6,33,0.00,,,0.00,WUHU216HW,2013-02-24 18:34:00,
2013-02-24 13:39:00,54.5,26.6,29.85,NNW,338,0.0,3.6,34,0.00,,,0.00,WUHU216HW,2013-02-24 18:39:00,
2013-02-24 13:44:00,54.7,26.6,29.85,NE,45,0.4,3.4,34,0.00,,,0.00,WUHU216HW,2013-02-24 18:44:00,
2013-02-24 13:49:00,55.6,28.2,29.85,WNW,293,0.4,1.8,35,0.00,,,0.00,WUHU216HW,2013-02-24 18:49:00,
2013-02-24 13:54:00,54.7,25.3,29.84,WNW,293,0.0,1.8,32,0.00,,,0.00,WUHU216HW,2013-02-24 18:54:00,
2013-02-24 13:59:00,55.4,28.7,29.84,ESE,113,0.0,1.1,36,0.00,,,0.00,WUHU216HW,2013-02-24 18:59:00,
2013-02-24 14:04:00,58.9,30.3,29.85,WNW,293,1.3,1.3,34,0.00,,,0.00,WUHU216HW,2013-02-24 19:04:00,
2013-02-24 14:09:00,58.7,26.5,29.84,West,270,1.3,4.0,29,0.00,,,0.00,WUHU216HW,2013-02-24 19:09:00,
2013-02-24 14:14:00,58.7,26.5,29.84,West,270,1.3,4.0,29,0.00,,,0.00,WUHU216HW,2013-02-24 19:14:00,
2013-02-24 14:19:00,58.7,26.5,29.84,West,270,1.3,1.3,29,0.00,,,0.00,WUHU216HW,2013-02-24 19:19:00,
2013-02-24 14:24:00,57.2,26.8,29.84,West,270,1.1,1.3,31,0.00,,,0.00,WUHU216HW,2013-02-24 19:24:00,
2013-02-24 14:29:00,57.2,28.2,29.85,WSW,248,0.4,1.3,33,0.00,,,0.00,WUHU216HW,2013-02-24 19:29:00,
2013-02-24 14:34:00,58.7,28.8,29.84,NNE,23,0.7,0.7,32,0.00,,,0.00,WUHU216HW,2013-02-24 19:34:00,
2013-02-24 14:39:00,59.2,29.3,29.85,SW,225,0.4,0.7,32,0.00,,,0.00,WUHU216HW,2013-02-24 19:39:00,
2013-02-24 14:44:00,59.0,25.7,29.84,West,270,1.1,1.1,28,0.00,,,0.00,WUHU216HW,2013-02-24 19:44:00,
2013-02-24 14:49:00,58.0,24.9,29.85,NNE,23,0.4,1.8,28,0.00,,,0.00,WUHU216HW,2013-02-24 19:49:00,
2013-02-24 14:54:00,58.7,26.5,29.84,West,270,0.7,1.8,29,0.00,,,0.00,WUHU216HW,2013-02-24 19:54:00,
2013-02-24 14:59:00,58.7,26.5,29.85,ESE,113,0.0,1.8,29,0.00,,,0.00,WUHU216HW,2013-02-24 19:59:00,
2013-02-24 15:04:00,59.2,27.9,29.86,SW,225,0.0,1.8,30,0.00,,,0.00,WUHU216HW,2013-02-24 20:04:00,
2013-02-24 15:09:00,59.4,26.1,29.85,East,90,0.2,1.1,28,0.00,,,0.00,WUHU216HW,2013-02-24 20:09:00,
2013-02-24 15:14:00,59.2,28.5,29.85,NW,315,0.0,0.4,31,0.00,,,0.00,WUHU216HW,2013-02-24 20:14:00,
2013-02-24 15:19:00,58.7,26.5,29.85,WNW,293,0.2,2.0,29,0.00,,,0.00,WUHU216HW,2013-02-24 20:19:00,
2013-02-24 15:24:00,58.5,25.3,29.85,WNW,293,0.4,2.0,28,0.00,,,0.00,WUHU216HW,2013-02-24 20:24:00,
2013-02-24 15:29:00,58.7,24.5,29.84,NW,315,0.4,1.1,27,0.00,,,0.00,WUHU216HW,2013-02-24 20:29:00,
2013-02-24 15:34:00,58.7,24.5,29.84,NNW,338,0.4,0.7,27,0.00,,,0.00,WUHU216HW,2013-02-24 20:34:00,
2013-02-24 15:39:00,59.4,25.1,29.85,NNW,338,0.4,0.4,27,0.00,,,0.00,WUHU216HW,2013-02-24 20:39:00,
2013-02-24 15:44:00,58.7,24.5,29.85,NW,315,0.0,1.1,27,0.00,,,0.00,WUHU216HW,2013-02-24 20:44:00,
2013-02-24 15:49:00,59.4,26.1,29.84,North,0,1.1,1.1,28,0.00,,,0.00,WUHU216HW,2013-02-24 20:49:00,
2013-02-24 15:54:00,59.0,25.7,29.85,West,270,0.4,1.1,28,0.00,,,0.00,WUHU216HW,2013-02-24 20:54:00,
2013-02-24 15:59:00,58.0,23.9,29.85,NNW,338,0.2,1.1,27,0.00,,,0.00,WUHU216HW,2013-02-24 20:59:00,
2013-02-24 16:04:00,57.4,21.5,29.85,WNW,293,0.4,4.3,25,0.00,,,0.00,WUHU216HW,2013-02-24 21:04:00,
2013-02-24 16:09:00,57.4,19.5,29.84,SSE,158,0.9,4.3,23,0.00,,,0.00,WUHU216HW,2013-02-24 21:09:00,
2013-02-24 16:14:00,57.2,21.3,29.84,West,270,1.8,1.8,25,0.00,,,0.00,WUHU216HW,2013-02-24 21:14:00,
2013-02-24 16:19:00,56.7,21.8,29.85,WNW,293,0.7,1.8,26,0.00,,,0.00,WUHU216HW,2013-02-24 21:19:00,
2013-02-24 16:24:00,56.3,22.4,29.85,WNW,293,0.0,0.9,27,0.00,,,0.00,WUHU216HW,2013-02-24 21:24:00,
2013-02-24 16:29:00,57.1,23.0,29.86,North,0,0.0,0.9,27,0.00,,,0.00,WUHU216HW,2013-02-24 21:29:00,
2013-02-24 16:34:00,57.6,23.6,29.85,WNW,293,0.0,0.4,27,0.00,,,0.00,WUHU216HW,2013-02-24 21:34:00,
2013-02-24 16:39:00,56.7,19.0,29.86,North,0,0.7,1.8,23,0.00,,,0.00,WUHU216HW,2013-02-24 21:39:00,
2013-02-24 16:44:00,55.8,20.1,29.85,NW,315,0.0,1.8,25,0.00,,,0.00,WUHU216HW,2013-02-24 21:44:00,
2013-02-24 16:49:00,55.6,20.0,29.85,West,270,1.1,1.8,25,0.00,,,0.00,WUHU216HW,2013-02-24 21:49:00,
2013-02-24 16:54:00,55.8,19.2,29.85,North,0,0.4,1.6,24,0.00,,,0.00,WUHU216HW,2013-02-24 21:54:00,
2013-02-24 16:59:00,56.3,20.5,29.85,ENE,68,0.4,1.6,25,0.00,,,0.00,WUHU216HW,2013-02-24 21:59:00,
2013-02-24 17:04:00,57.4,24.4,29.85,WNW,293,0.4,0.4,28,0.00,,,0.00,WUHU216HW,2013-02-24 22:04:00,
2013-02-24 17:09:00,58.0,21.0,29.85,NW,315,0.4,0.4,24,0.00,,,0.00,WUHU216HW,2013-02-24 22:09:00,
2013-02-24 17:14:00,56.9,21.1,29.86,West,270,0.4,0.7,25,0.00,,,0.00,WUHU216HW,2013-02-24 22:14:00,
2013-02-24 17:19:00,56.7,22.8,29.86,NNW,338,0.0,0.7,27,0.00,,,0.00,WUHU216HW,2013-02-24 22:19:00,
2013-02-24 17:24:00,56.2,20.4,29.85,NW,315,0.0,1.1,25,0.00,,,0.00,WUHU216HW,2013-02-24 22:24:00,
2013-02-24 17:29:00,55.3,21.5,29.86,WNW,293,0.2,1.1,27,0.00,,,0.00,WUHU216HW,2013-02-24 22:29:00,
2013-02-24 17:34:00,54.4,18.9,29.87,WNW,293,0.2,0.7,25,0.00,,,0.00,WUHU216HW,2013-02-24 22:34:00,
2013-02-24 17:39:00,54.2,20.6,29.86,WNW,293,0.0,0.4,27,0.00,,,0.00,WUHU216HW,2013-02-24 22:39:00,
2013-02-24 17:44:00,54.4,21.7,29.87,WNW,293,0.4,0.4,28,0.00,,,0.00,WUHU216HW,2013-02-24 22:44:00,
2013-02-24 17:49:00,54.2,22.5,29.86,WNW,293,0.0,0.4,29,0.00,,,0.00,WUHU216HW,2013-02-24 22:49:00,
2013-02-24 17:54:00,53.6,21.2,29.87,West,270,0.0,0.0,28,0.00,,,0.00,WUHU216HW,2013-02-24 22:54:00,
2013-02-24 17:59:00,53.1,17.8,29.86,West,270,0.7,0.7,25,0.00,,,0.00,WUHU216HW,2013-02-24 22:59:00,
2013-02-24 18:04:00,52.2,19.9,29.87,SW,225,0.2,0.9,28,0.00,,,0.00,WUHU216HW,2013-02-24 23:04:00,
2013-02-24 18:09:00,51.7,19.4,29.87,SW,225,0.0,0.9,28,0.00,,,0.00,WUHU216HW,2013-02-24 23:09:00,
2013-02-24 18:14:00,50.9,17.8,29.91,SW,225,0.0,0.2,27,0.00,,,0.00,WUHU216HW,2013-02-24 23:14:00,
2013-02-24 18:19:00,50.2,18.1,29.91,SW,225,0.0,0.2,28,0.00,,,0.00,WUHU216HW,2013-02-24 23:19:00,
2013-02-24 18:24:00,49.7,16.7,29.92,WSW,248,0.4,0.4,27,0.00,,,0.00,WUHU216HW,2013-02-24 23:24:00,
2013-02-24 18:29:00,49.3,18.3,29.92,WSW,248,0.0,0.4,29,0.00,,,0.00,WUHU216HW,2013-02-24 23:29:00,
2013-02-24 18:34:00,49.0,19.6,29.92,WSW,248,0.0,0.2,31,0.00,,,0.00,WUHU216HW,2013-02-24 23:34:00,
2013-02-24 18:39:00,48.1,18.9,29.92,WSW,248,0.0,0.0,31,0.00,,,0.00,WUHU216HW,2013-02-24 23:39:00,
2013-02-24 18:44:00,47.3,18.9,29.93,WSW,248,0.0,0.0,32,0.00,,,0.00,WUHU216HW,2013-02-24 23:44:00,
2013-02-24 18:49:00,46.8,20.4,29.93,WSW,248,0.0,0.0,35,0.00,,,0.00,WUHU216HW,2013-02-24 23:49:00,
2013-02-24 18:54:00,46.1,20.4,29.93,WSW,248,0.0,0.0,36,0.00,,,0.00,WUHU216HW,2013-02-24 23:54:00,
2013-02-24 18:59:00,45.7,20.8,29.92,WSW,248,0.0,0.0,37,0.00,,,0.00,WUHU216HW,2013-02-24 23:59:00,
2013-02-24 19:04:00,45.2,21.0,29.93,WSW,248,0.0,0.0,38,0.00,,,0.00,WUHU216HW,2013-02-25 00:04:00,
2013-02-24 19:09:00,44.8,20.6,29.93,WSW,248,0.0,0.0,38,0.00,,,0.00,WUHU216HW,2013-02-25 00:09:00,
2013-02-24 19:14:00,44.3,20.8,29.93,WSW,248,0.0,0.0,39,0.00,,,0.00,WUHU216HW,2013-02-25 00:14:00,
2013-02-24 19:19:00,43.9,21.2,29.92,WSW,248,0.0,0.0,40,0.00,,,0.00,WUHU216HW,2013-02-25 00:19:00,
2013-02-24 19:24:00,43.6,21.3,29.93,WSW,248,0.0,0.0,41,0.00,,,0.00,WUHU216HW,2013-02-25 00:24:00,
2013-02-24 19:29:00,43.2,21.6,29.93,WSW,248,0.0,0.0,42,0.00,,,0.00,WUHU216HW,2013-02-25 00:29:00,
2013-02-24 19:34:00,42.8,21.8,29.93,WSW,248,0.0,0.0,43,0.00,,,0.00,WUHU216HW,2013-02-25 00:34:00,
2013-02-24 19:39:00,42.1,22.1,29.94,WSW,248,0.0,0.0,45,0.00,,,0.00,WUHU216HW,2013-02-25 00:39:00,
2013-02-24 19:44:00,41.4,21.5,29.93,WSW,248,0.0,0.0,45,0.00,,,0.00,WUHU216HW,2013-02-25 00:44:00,
2013-02-24 19:49:00,41.0,21.7,29.93,SE,135,0.0,0.2,46,0.00,,,0.00,WUHU216HW,2013-02-25 00:49:00,
2013-02-24 19:54:00,41.0,21.2,29.93,SE,135,0.0,0.2,45,0.00,,,0.00,WUHU216HW,2013-02-25 00:54:00,
2013-02-24 19:59:00,40.9,20.4,29.93,SE,135,0.0,0.0,44,0.00,,,0.00,WUHU216HW,2013-02-25 00:59:00,
2013-02-24 20:04:00,41.0,19.1,29.94,SE,135,0.0,0.0,41,0.00,,,0.00,WUHU216HW,2013-02-25 01:04:00,
2013-02-24 20:09:00,41.2,18.7,29.94,SE,135,0.0,0.0,40,0.00,,,0.00,WUHU216HW,2013-02-25 01:09:00,
2013-02-24 20:14:00,41.2,19.3,29.94,SE,135,0.0,0.0,41,0.00,,,0.00,WUHU216HW,2013-02-25 01:14:00,
2013-02-24 20:19:00,41.2,19.3,29.94,SE,135,0.0,0.0,41,0.00,,,0.00,WUHU216HW,2013-02-25 01:19:00,
2013-02-24 20:24:00,41.4,19.9,29.94,SE,135,0.0,0.0,42,0.00,,,0.00,WUHU216HW,2013-02-25 01:24:00,
2013-02-24 20:29:00,41.2,20.3,29.94,SE,135,0.0,0.7,43,0.00,,,0.00,WUHU216HW,2013-02-25 01:29:00,
2013-02-24 20:34:00,40.9,19.5,29.94,SE,135,0.0,0.7,42,0.00,,,0.00,WUHU216HW,2013-02-25 01:34:00,
2013-02-24 20:39:00,40.9,19.5,29.94,SE,135,0.0,0.7,42,0.00,,,0.00,WUHU216HW,2013-02-25 01:39:00,
2013-02-24 20:44:00,41.0,19.6,29.94,SE,135,0.0,0.0,42,0.00,,,0.00,WUHU216HW,2013-02-25 01:44:00,
2013-02-24 20:49:00,41.2,19.7,29.94,SE,135,0.0,0.4,42,0.00,,,0.00,WUHU216HW,2013-02-25 01:49:00,
2013-02-24 20:54:00,41.2,19.7,29.94,SE,135,0.0,0.4,42,0.00,,,0.00,WUHU216HW,2013-02-25 01:54:00,
2013-02-24 20:59:00,41.0,20.1,29.93,SE,135,0.0,0.0,43,0.00,,,0.00,WUHU216HW,2013-02-25 01:59:00,
2013-02-24 21:04:00,40.7,21.3,29.93,SE,135,0.0,0.0,46,0.00,,,0.00,WUHU216HW,2013-02-25 02:04:00,
2013-02-24 21:09:00,40.0,20.7,29.93,SE,135,0.0,0.0,46,0.00,,,0.00,WUHU216HW,2013-02-25 02:09:00,
2013-02-24 21:14:00,39.6,20.9,29.92,SE,135,0.0,0.0,47,0.00,,,0.00,WUHU216HW,2013-02-25 02:14:00,
2013-02-24 21:19:00,39.2,20.6,29.94,SE,135,0.0,0.0,47,0.00,,,0.00,WUHU216HW,2013-02-25 02:19:00,
2013-02-24 21:24:00,39.1,20.4,29.94,SE,135,0.0,0.0,47,0.00,,,0.00,WUHU216HW,2013-02-25 02:24:00,
2013-02-24 21:29:00,38.9,19.7,29.94,SE,135,0.0,0.0,46,0.00,,,0.00,WUHU216HW,2013-02-25 02:29:00,
2013-02-24 21:34:00,39.1,19.9,29.93,SE,135,0.0,0.0,46,0.00,,,0.00,WUHU216HW,2013-02-25 02:34:00,
2013-02-24 21:39:00,39.1,20.4,29.93,SE,135,0.0,0.0,47,0.00,,,0.00,WUHU216HW,2013-02-25 02:39:00,
2013-02-24 21:44:00,38.7,20.6,29.94,SE,135,0.0,0.0,48,0.00,,,0.00,WUHU216HW,2013-02-25 02:44:00,
2013-02-24 21:49:00,38.3,20.3,29.94,SE,135,0.0,0.0,48,0.00,,,0.00,WUHU216HW,2013-02-25 02:49:00,
2013-02-24 21:54:00,37.8,20.9,29.94,SE,135,0.0,0.0,50,0.00,,,0.00,WUHU216HW,2013-02-25 02:54:00,
2013-02-24 21:59:00,37.6,20.7,29.95,SE,135,0.0,0.0,50,0.00,,,0.00,WUHU216HW,2013-02-25 02:59:00,
2013-02-24 22:04:00,37.1,21.1,29.95,SE,135,0.0,0.0,52,0.00,,,0.00,WUHU216HW,2013-02-25 03:04:00,
2013-02-24 22:09:00,36.7,20.7,29.94,SE,135,0.0,0.0,52,0.00,,,0.00,WUHU216HW,2013-02-25 03:09:00,
2013-02-24 22:14:00,36.4,20.9,29.95,SE,135,0.0,0.0,53,0.00,,,0.00,WUHU216HW,2013-02-25 03:14:00,
2013-02-24 22:19:00,36.2,21.5,29.95,SE,135,0.0,0.0,55,0.00,,,0.00,WUHU216HW,2013-02-25 03:19:00,
2013-02-24 22:24:00,36.2,21.2,29.94,SE,135,0.0,0.2,54,0.00,,,0.00,WUHU216HW,2013-02-25 03:24:00,
2013-02-24 22:29:00,36.2,21.5,29.94,SE,135,0.0,0.2,55,0.00,,,0.00,WUHU216HW,2013-02-25 03:29:00,
2013-02-24 22:34:00,35.8,20.8,29.93,SE,135,0.0,0.2,54,0.00,,,0.00,WUHU216HW,2013-02-25 03:34:00,
2013-02-24 22:39:00,35.6,21.1,29.93,SE,135,0.0,0.0,55,0.00,,,0.00,WUHU216HW,2013-02-25 03:39:00,
2013-02-24 22:44:00,35.3,20.7,29.94,SE,135,0.0,0.0,55,0.00,,,0.00,WUHU216HW,2013-02-25 03:44:00,
2013-02-24 22:49:00,35.1,21.0,29.94,SE,135,0.0,0.0,56,0.00,,,0.00,WUHU216HW,2013-02-25 03:49:00,
2013-02-24 22:54:00,34.9,21.3,29.93,SE,135,0.0,0.0,57,0.00,,,0.00,WUHU216HW,2013-02-25 03:54:00,
2013-02-24 22:59:00,34.6,20.4,29.94,SE,135,0.0,0.0,56,0.00,,,0.00,WUHU216HW,2013-02-25 03:59:00,
2013-02-24 23:04:00,34.2,20.5,29.94,SE,135,0.0,0.0,57,0.00,,,0.00,WUHU216HW,2013-02-25 04:04:00,
2013-02-24 23:09:00,33.8,20.5,29.93,SE,135,0.0,0.0,58,0.00,,,0.00,WUHU216HW,2013-02-25 04:09:00,
2013-02-24 23:14:00,33.5,20.3,29.93,SE,135,0.0,0.0,58,0.00,,,0.00,WUHU216HW,2013-02-25 04:14:00,
2013-02-24 23:19:00,33.1,20.3,29.94,SE,135,0.0,0.0,59,0.00,,,0.00,WUHU216HW,2013-02-25 04:19:00,
2013-02-24 23:24:00,32.8,20.4,29.92,SE,135,0.0,0.0,60,0.00,,,0.00,WUHU216HW,2013-02-25 04:24:00,
2013-02-24 23:29:00,32.6,20.6,29.93,SE,135,0.0,0.0,61,0.00,,,0.00,WUHU216HW,2013-02-25 04:29:00,
2013-02-24 23:34:00,32.4,20.5,29.94,SE,135,0.0,0.0,61,0.00,,,0.00,WUHU216HW,2013-02-25 04:34:00,
2013-02-24 23:39:00,32.4,20.5,29.93,SE,135,0.0,0.0,61,0.00,,,0.00,WUHU216HW,2013-02-25 04:39:00,
2013-02-24 23:44:00,32.2,20.7,29.93,SE,135,0.0,0.2,62,0.00,,,0.00,WUHU216HW,2013-02-25 04:44:00,
2013-02-24 23:49:00,32.0,20.5,29.92,SE,135,0.0,0.2,62,0.00,,,0.00,WUHU216HW,2013-02-25 04:49:00,
2013-02-24 23:54:00,31.9,20.7,29.93,SE,135,0.0,0.0,63,0.00,,,0.00,WUHU216HW,2013-02-25 04:54:00,
2013-02-24 23:59:00,31.7,20.9,29.93,SE,135,0.0,0.0,64,0.00,,,0.00,WUHU216HW,2013-02-25 04:59:00,